Location: Shenandoah County Park
(38.9356°N, 78.4524°W)
Time: 15:30:42
(UTC-05:00)

Vanguard 2 Rocket - Pass Details

Date: 06 December 2023
Orbit: 555 x 3309 km, 32.9° (Epoch: 03 March)

Event Time Altitude Azimuth Distance (km) Brightness Sun altitude
Rises 13:29:04 0° 228° (SW) 5,676 12.0 25.5°
Reaches altitude 10° 13:32:26 10° 223° (SW) 4,986 12.1 25.2°
Maximum altitude 13:47:31 53° 152° (SSE) 3,571 10.6 24.0°
Drops below altitude 10° 14:06:41 10° 84° (E) 6,201 10.9 22.2°
Sets 14:11:26 0° 80° (E) 7,091 11.1 21.8°
